[[[{"header":{"parameterUnit":"kt","parameterCategory":2,"dx":1,"dy":1,"la1":30.253999710083008,"la2":30.299108505249023,"lo1":-89.0895004272461,"lo2":-89.04439544677734,"nx":28,"ny":28,"refTime":"2022-10-22T21:00:00:Z","depth":0,"parameterNumber":1,"parameterNumberName":"U-component_of_WINDS"},"data":[-4.1586,-4.1641,-4.1665,-4.174,-4.1775,-4.1831,-4.1859,-4.1898,-4.1936,-4.2008,-4.2054,-4.2085,-4.2134,-4.2197,-4.2249,-4.2262,-4.2283,-4.2285,-4.23,-4.2264,-4.2261,-4.2258,-4.2245,-4.229,-4.229,-4.2334,-4.2334,-4.2334,-4.1564,-4.1598,-4.1644,-4.1705,-4.1745,-4.1758,-4.1808,-4.1842,-4.1891,-4.1938,-4.1984,-4.2049,-4.2104,-4.2153,-4.2211,-4.224,-4.2249,-4.2254,-4.2251,-4.2259,-4.2222,-4.2208,-4.2245,-4.2245,-4.2245,-4.2245,-4.2245,-4.2245,-4.1529,-4.156,-4.161,-4.166,-4.1697,-4.1738,-4.1773,-4.181,-4.1856,-4.1916,-4.1937,-4.1994,-4.2046,-4.2127,-4.216,-4.2208,-4.2207,-4.2219,-4.2222,-4.2225,-4.2225,-4.216,-4.2218,-4.2218,-4.2218,-4.2218,-4.2218,0,-4.151,-4.1528,-4.1572,-4.1625,-4.1662,-4.1705,-4.1748,-4.1771,-4.1817,-4.1853,-4.1908,-4.1943,-4.2015,-4.207,-4.2129,-4.2161,-4.2177,-4.2182,-4.2191,-4.218,-4.2166,-4.2175,-4.2113,-4.2179,-4.2178,-4.2178,-4.2178,-4.2178,-4.1477,-4.1509,-4.1572,-4.1601,-4.1629,-4.1674,-4.1706,-4.1744,-4.1776,-4.1836,-4.1863,-4.1918,-4.1963,-4.2048,-4.209,-4.2144,-4.2152,-4.2175,-4.216,-4.2151,-4.2153,-4.215,-4.2155,-4.2176,-4.2176,-4.2176,-4.2176,0,-4.1456,-4.1493,-4.1551,-4.161,-4.1626,-4.1659,-4.171,-4.1743,-4.1773,-4.1824,-4.1838,-4.1886,-4.1939,-4.1978,-4.2046,-4.2065,-4.2125,-4.2131,-4.2108,-4.2111,-4.2136,-4.2133,-4.2207,-4.2219,-4.2174,-4.2174,-4.2175,0,-4.1442,-4.1483,-4.1536,-4.1567,-4.1616,-4.165,-4.1698,-4.1728,-4.1771,-4.181,-4.1834,-4.1871,-4.1914,-4.1957,-4.1985,-4.204,-4.2053,-4.207,-4.2077,-4.2068,-4.2065,-4.2084,-4.2081,-4.2089,-4.2089,-4.2089,-4.2088,0,-4.1405,-4.148,-4.1531,-4.1554,-4.1619,-4.1644,-4.1672,-4.1719,-4.1749,-4.1795,-4.1816,-4.1867,-4.1895,-4.1935,-4.1969,-4.1958,-4.2038,-4.2029,-4.2055,-4.2055,-4.2069,-4.2067,-4.2125,-4.2088,-4.2088,-4.2088,-4.2087,0,-4.1397,-4.1441,-4.1509,-4.1564,-4.1582,-4.1616,-4.1667,-4.1705,-4.1753,-4.1771,-4.1807,-4.1826,-4.1876,-4.1866,-4.1936,-4.1912,-4.1939,-4.196,-4.1963,-4.1968,-4.1954,-4.1981,-4.2032,-4.2039,-4.1976,-4.1975,-4.1975,0,-4.1346,-4.1423,-4.1452,-4.1516,-4.1556,-4.1579,-4.1618,-4.1658,-4.1685,-4.1725,-4.1756,-4.1801,-4.1801,-4.1819,-4.185,-4.1883,-4.1915,-4.188,-4.194,-4.1941,-4.1926,-4.1974,-4.1971,-4.2017,-4.1963,-4.1964,-4.1965,0,-4.1309,-4.1384,-4.1393,-4.1421,-4.1477,-4.151,-4.1554,-4.1605,-4.163,-4.1672,-4.171,-4.1774,-4.1776,-4.1806,-4.1826,-4.1855,-4.1895,-4.1854,-4.1855,-4.186,-4.196,-4.1958,-4.1965,-4.1902,-4.1904,-4.1905,-4.1956,0,-4.1292,-4.1333,-4.1359,-4.1416,-4.1447,-4.1487,-4.1523,-4.1552,-4.1568,-4.1594,-4.1651,-4.1691,-4.1742,-4.176,-4.1774,-4.1828,-4.1825,-4.1826,-4.1816,-4.1847,-4.1865,-4.1872,-4.1787,-4.1787,-4.1787,-4.1787,0,0,-4.1233,-4.1292,-4.132,-4.1361,-4.1389,-4.1409,-4.1449,-4.1479,-4.1537,-4.1557,-4.1552,-4.1645,-4.1677,-4.1742,-4.1755,-4.1775,-4.1789,-4.1774,-4.1832,-4.1837,-4.1842,-4.186,-4.1867,-4.1787,-4.1787,-4.1786,-4.1786,0,-4.1233,-4.1263,-4.1301,-4.1333,-4.138,-4.1405,-4.1414,-4.1464,-4.1482,-4.1536,-4.1551,-4.1589,-4.166,-4.1693,-4.1719,-4.1769,-4.1777,-4.1782,-4.1797,-4.183,-4.1835,-4.184,-4.1859,-4.1865,-4.1786,-4.1786,-4.1786,0,-4.1203,-4.1239,-4.126,-4.1321,-4.1352,-4.1392,-4.1391,-4.1432,-4.1462,-4.148,-4.1532,-4.1559,-4.1605,-4.166,-4.1686,-4.1682,-4.1765,-4.1744,-4.1745,-4.1748,-4.1782,-4.1788,-4.1794,-4.1724,-4.1723,-4.1723,0,0,-4.1198,-4.1235,-4.1283,-4.1323,-4.1342,-4.1378,-4.1402,-4.1418,-4.1458,-4.1473,-4.1506,-4.1545,-4.1588,-4.1615,-4.1656,-4.1711,-4.1724,-4.1735,-4.1738,-4.174,-4.1744,-4.1779,-4.1785,-4.1722,-4.1722,-4.1721,0,0,-4.1195,-4.1252,-4.1259,-4.131,-4.1347,-4.1396,-4.142,-4.143,-4.147,-4.1469,-4.1498,-4.151,-4.1562,-4.1586,-4.1564,-4.1653,-4.1642,-4.1648,-4.1634,-4.1638,-4.1641,-4.1633,-4.1567,0,0,0,0,0,-4.1211,-4.1245,-4.1251,-4.1264,-4.134,-4.1393,-4.1403,-4.1427,-4.142,-4.1439,-4.1469,-4.1476,-4.1581,-4.1562,-4.1576,-4.1599,-4.1704,-4.1707,-4.171,-4.1705,-4.1709,-4.1712,0,0,0,0,0,0,-4.1217,-4.1233,-4.125,-4.13,-4.1317,-4.1392,-4.1385,-4.1393,-4.1419,-4.1419,-4.147,-4.1477,-4.1499,-4.1557,-4.1569,-4.1591,-4.1563,-4.1705,-4.1708,-4.171,-4.1706,-4.1709,-4.1712,0,0,0,0,0,-4.1221,-4.1234,-4.1349,-4.13,-4.1315,-4.1356,-4.1384,-4.139,-4.1411,-4.1455,-4.1463,-4.1427,-4.1499,-4.1511,-4.1564,-4.1585,-4.1555,-4.1559,-4.1707,-4.1709,-4.1711,-4.1708,0,0,0,0,0,0,-4.1225,-4.1241,-4.1352,-4.1358,-4.1288,-4.1352,-4.1363,-4.1388,-4.1446,-4.1453,-4.1414,-4.1413,-4.15,-4.1509,-4.1517,-4.1581,-4.1549,-4.1553,-4.1556,-4.1708,-4.171,-4.1711,0,0,0,0,0,0,-4.1234,-4.1246,-4.1355,-4.1338,-4.1342,-4.1349,-4.1358,-4.1406,-4.1446,-4.1401,-4.1402,-4.1413,-4.1487,-4.1507,-4.1514,-4.1588,-4.1544,-4.1548,-4.1551,-4.1553,-4.171,-4.1711,0,0,0,0,0,0,-4.1239,-4.1249,-4.1337,-4.134,-4.1343,-4.1408,-4.1392,-4.1468,-4.1431,-4.1398,-4.1429,-4.1427,-4.1485,-4.1492,-4.1512,-4.1583,-4.1587,-4.1544,-4.1547,-4.1549,-4.155,0,0,0,0,0,0,0,-4.1244,-4.1172,-4.1319,-4.1341,-4.1344,-4.1409,-4.1411,-4.1412,-4.1431,-4.143,-4.1429,-4.1428,-4.152,-4.1524,-4.1529,-4.1578,0,0,-4.1543,-4.1545,0,0,0,0,0,0,0,0,-4.1168,-4.1171,-4.1319,-4.132,-4.1322,-4.1409,-4.1411,-4.1412,-4.1431,-4.143,-4.1429,-4.1428,-4.1521,-4.1525,-4.1529,0,0,0,0,0,0,0,0,0,0,0,0,0,0,0,-4.1319,-4.132,0,-4.141,-4.1411,-4.1412,-4.1431,-4.143,-4.1429,-4.1429,-4.1522,-4.1525,-4.1528,0,0,0,0,0,0,0,0,0,0,0,0,0,0,0,0,0,0,0,0,0,0,0,0,0,0,0,0,0,0,0,0,0,0,0,0,0,0,0,0,0,0,0,0,0,0,0,0,0,0,0,0,0,0,0,0,0,0,0,0,0,0,0,0,0,0,0,0,0]}],[{"header":{"parameterUnit":"kt","parameterCategory":2,"dx":1,"dy":1,"la1":30.253999710083008,"la2":30.299108505249023,"lo1":-89.0895004272461,"lo2":-89.04439544677734,"nx":28,"ny":28,"refTime":"2022-10-22T21:00:00:Z","depth":0,"parameterNumber":2,"parameterNumberName":"V-component_of_WINDS"},"data":[6.0935,6.0895,6.0899,6.0852,6.0847,6.0816,6.0805,6.0791,6.0779,6.0739,6.0716,6.0712,6.0698,6.0669,6.0641,6.0639,6.0627,6.0612,6.0612,6.0682,6.0692,6.0701,6.0712,6.0609,6.0609,6.0539,6.0538,6.0538,6.099,6.0985,6.0962,6.0941,6.0921,6.0939,6.0922,6.0903,6.0873,6.0858,6.0835,6.0798,6.0768,6.0759,6.0729,6.0707,6.0712,6.0699,6.07,6.0697,6.0773,6.0785,6.0696,6.0696,6.0696,6.0696,6.0696,6.0696,6.1089,6.1064,6.1054,6.1029,6.1019,6.1004,6.0979,6.0977,6.0951,6.0923,6.0929,6.0893,6.0876,6.0839,6.0826,6.0796,6.081,6.0795,6.0791,6.0787,6.0784,6.0886,6.0791,6.0791,6.0791,6.0791,6.0792,0,6.1163,6.1168,6.1145,6.1124,6.1105,6.1087,6.1071,6.1055,6.1062,6.104,6.1008,6.0989,6.0951,6.0919,6.089,6.0879,6.089,6.0891,6.0881,6.0878,6.088,6.0879,6.1002,6.0893,6.0894,6.0895,6.0895,6.0895,6.1263,6.1233,6.1223,6.1207,6.1199,6.1171,6.1155,6.1163,6.1145,6.1123,6.1099,6.1068,6.1043,6.0987,6.0979,6.0949,6.0953,6.0912,6.0949,6.0948,6.0953,6.0954,6.0951,6.0905,6.0903,6.0902,6.0902,0,6.132,6.1325,6.1279,6.127,6.1267,6.1234,6.1226,6.1199,6.1198,6.116,6.1152,6.1148,6.1114,6.1113,6.1073,6.1072,6.1014,6.102,6.1022,6.1022,6.0985,6.0989,6.0865,6.0849,6.0956,6.0955,6.0954,0,6.1407,6.1366,6.1376,6.1349,6.1304,6.1314,6.1268,6.1262,6.1248,6.1219,6.1234,6.1205,6.1208,6.1178,6.1178,6.113,6.1122,6.1119,6.1119,6.1117,6.1117,6.1104,6.1109,6.112,6.1121,6.1122,6.1122,0,6.1494,6.1451,6.1407,6.1398,6.1383,6.1361,6.1353,6.1338,6.132,6.1297,6.1285,6.1256,6.1239,6.1215,6.1216,6.124,6.1157,6.119,6.1153,6.1153,6.1133,6.1134,6.1027,6.1123,6.1123,6.1123,6.1124,0,6.1565,6.1545,6.148,6.1469,6.1457,6.1426,6.1401,6.1375,6.1356,6.1355,6.1336,6.1345,6.1303,6.1338,6.128,6.1312,6.1294,6.1287,6.1285,6.128,6.1317,6.1256,6.1155,6.1144,6.1277,6.1278,6.1279,0,6.1664,6.16,6.1608,6.1545,6.1516,6.1537,6.1503,6.1486,6.1482,6.1454,6.1448,6.1415,6.144,6.1429,6.1401,6.1392,6.1349,6.1398,6.1353,6.1351,6.1358,6.1265,6.125,6.1178,6.1296,6.1294,6.1293,0,6.1741,6.1725,6.1713,6.1703,6.1685,6.1659,6.162,6.159,6.1572,6.155,6.1516,6.1468,6.1486,6.1467,6.147,6.144,6.1378,6.1461,6.1461,6.1446,6.1303,6.129,6.1278,6.1386,6.1384,6.1383,6.1306,0,6.1847,6.1815,6.1783,6.1759,6.1739,6.1699,6.1701,6.1679,6.1686,6.1683,6.1632,6.1615,6.158,6.1566,6.157,6.1504,6.1514,6.1532,6.1563,6.1502,6.1476,6.1466,6.1602,6.1602,6.1603,6.1604,0,0,6.194,6.1894,6.1904,6.1868,6.1851,6.1873,6.183,6.1816,6.1785,6.1773,6.1791,6.1721,6.1705,6.1642,6.1623,6.1609,6.1596,6.1617,6.1531,6.1523,6.1515,6.1488,6.1477,6.1605,6.1605,6.1606,6.1606,0,6.1979,6.197,6.1928,6.1915,6.1896,6.1895,6.1885,6.1869,6.1864,6.1814,6.183,6.1798,6.174,6.1722,6.1705,6.1625,6.1636,6.1614,6.1573,6.1539,6.153,6.1522,6.1493,6.1483,6.1608,6.1608,6.1608,0,6.2055,6.2046,6.2026,6.1992,6.1978,6.1945,6.1981,6.1944,6.1919,6.1939,6.1889,6.1879,6.1854,6.1794,6.1767,6.1782,6.1673,6.1707,6.1702,6.1698,6.1665,6.1654,6.1644,6.1772,6.1773,6.1773,0,0,6.2089,6.2059,6.2049,6.2,6.1991,6.1988,6.197,6.1975,6.1955,6.1946,6.1933,6.191,6.1877,6.1854,6.1822,6.1757,6.1751,6.1727,6.1719,6.1713,6.1706,6.1671,6.166,6.1776,6.1776,6.1776,0,0,6.2103,6.2092,6.2104,6.2047,6.2029,6.2013,6.1982,6.1994,6.1966,6.197,6.1973,6.1967,6.1911,6.1899,6.193,6.1833,6.1864,6.1857,6.1843,6.1833,6.1825,6.1828,6.196,0,0,0,0,0,6.2145,6.2094,6.2105,6.2096,6.2049,6.2008,6.2002,6.2006,6.2029,6.2004,6.1995,6.2008,6.1917,6.1944,6.1933,6.1898,6.1805,6.18,6.1795,6.1761,6.1751,6.1742,0,0,0,0,0,0,6.2141,6.213,6.2106,6.2089,6.2079,6.201,6.205,6.205,6.2032,6.2035,6.201,6.2008,6.2007,6.195,6.194,6.1907,6.1964,6.1803,6.1798,6.1794,6.1758,6.1749,6.1742,0,0,0,0,0,6.2138,6.2129,6.2055,6.2089,6.208,6.2074,6.2052,6.2052,6.2038,6.2023,6.2021,6.2042,6.2006,6.1998,6.1944,6.1911,6.1971,6.1967,6.18,6.1796,6.1793,6.1754,0,0,0,0,0,0,6.2136,6.2127,6.2053,6.205,6.2109,6.2077,6.2073,6.2054,6.2027,6.2025,6.2056,6.2059,6.2005,6.1999,6.1992,6.1913,6.1976,6.1973,6.197,6.1797,6.1795,6.1792,0,0,0,0,0,0,6.2132,6.2125,6.2052,6.2076,6.2076,6.2081,6.2077,6.203,6.2026,6.2061,6.2063,6.2058,6.2013,6.1999,6.1994,6.1921,6.1981,6.1977,6.1975,6.1973,6.1795,6.1793,0,0,0,0,0,0,6.2129,6.2123,6.2077,6.2077,6.2077,6.2047,6.204,6.1991,6.2051,6.2061,6.2056,6.2059,6.2013,6.2008,6.1995,6.1924,6.1922,6.1981,6.1978,6.1976,6.1975,0,0,0,0,0,0,0,6.2127,6.2169,6.207,6.2078,6.2078,6.2025,6.2024,6.2023,6.2052,6.2054,6.2056,6.2058,6.2002,6.1998,6.1994,6.1927,0,0,6.1981,6.1979,0,0,0,0,0,0,0,0,6.2172,6.217,6.207,6.2069,6.2069,6.2025,6.2024,6.2024,6.2052,6.2054,6.2055,6.2057,6.2001,6.1998,6.1994,0,0,0,0,0,0,0,0,0,0,0,0,0,0,0,6.207,6.2069,0,6.2025,6.2024,6.2024,6.2052,6.2054,6.2055,6.2056,6.2,6.1997,6.1994,0,0,0,0,0,0,0,0,0,0,0,0,0,0,0,0,0,0,0,0,0,0,0,0,0,0,0,0,0,0,0,0,0,0,0,0,0,0,0,0,0,0,0,0,0,0,0,0,0,0,0,0,0,0,0,0,0,0,0,0,0,0,0,0,0,0,0,0,0]}]]]